Find BS-3N

NORAD ID: 23176 Int'l Des: 1994-040 Owner: NHK Country: J operational
HEOCIRCULAR

Live-Position

3D-Globus wird geladen...

Über BS-3N

Beschreibung wird geladen...

Nächste Überflüge

Passes for default location (London). Set your location on the main map for personalized predictions.

Höhenverlauf

Loading altitude history...

Zweizeiliger Elementsatz

1 23176U 94040B 26105.47871287 -.00000102 00000-0 00000+0 0 9997
2 23176 13.3077 20.4171 0004851 6.9946 176.7703 0.99154023101689
Epoch: 15. Apr. 2026 • Age: 42 hours

Aktueller Status

Höhe 36096.2 km
Geschwindigkeit 3.06 km/s
Subsatellitenpunkt 13.17°N, 178.93°W
Startdatum 8. Juli 1994
Alter 31.7 years
Typ other

Technische Details

Klassifizierung Payload
Masse 667.00 kg
Trockenmasse 467.00 kg
Gesamtmasse 1210.00 kg
Länge 1.60 m
Durchmesser 1.40 m
Spannweite 15.40 m
Form Box + 2 Pan
Hersteller MMAS
Bus-Typ AS3000
Phasenstatus In Orbit
Besitzer/Staat NHK/J

Most Searched